sat.trackr.live / text

‹ back to catalog

STARLINK-1356

NORAD 45564 · 2020-025AK

PAYLOAD ACTIVE UNKNOWN

§ Identity

Operator
Country
US
Launch date
2020-04-22
Launch site
AFETR
Launch vehicle
Mass (kg)
RCS (m²)

Purposes: comms

External: N2YO · Heavens-Above · Gunter

§ Orbital elements

Epoch: 2026-09-15T15:18:25.757568Z

Period
91.45 min
Inclination
53.0385°
Eccentricity
0.0003687
Mean motion
15.74621987 rev/d
Perigee alt
343.2 km
Apogee alt
348.2 km
Semi-major
6,723.8 km
B*
4.0023e-4
RAAN
226.4462°
Arg perigee
55.1885°
Mean anomaly
304.9480°
Rev number
35,522

§ Raw data

STARLINK-13561 45564U 20025AK  26258.63779812  .00059536  00000+0  40023-3 0  99982 45564  53.0385 226.4462 0003687  55.1885 304.9480 15.74621987355227

JSON: /api/v1/satellites/45564 · /tle

For live sub-satellite position, see the globe view (requires WebGL).

§ Visibility from observer

Set your observer location to see the next 7 days of passes ≥ 10°. The values pass through the URL so the page stays shareable.

No JS? Fill the form by hand. The geolocation button needs JavaScript.